SCP
4 4 4 4 4 3 3 3 3 3 3 3 3 3 3 3 3 3 4 5 5 5 5 4 3 3 2 2 2 2 2 2 2 1 1 1 1 1 1 1 1 1 1
5 4 4 4 3 3 3 3 3 3 3 3 3 3 3 3 3 3 4 5 5 5 5 4 3 3 3 3 2 2 2 2 2 2 1 1 1 1 1 1 1 1 1
5 4 4 3 3 3 3 3 3 3 3 3 3 3 3 3 3 4 5 5 5 4 4 4 4 4 4 3 3 3 3 3 2 2 2 2 2 1 2 2 2 1 1
4 4 3 3 2 2 2 3 3 3 2 2 2 2 2 3 4 4 5 5 5 5 5 4 4 4 4 4 4 4 4 3 3 3 2 2 2 2 2 2 2 2 1
3 3 3 2 2 2 2 2 3 3 2 2 2 2 2 3 3 4 4 4 5 5 5 5 5 4 4 4 4 4 4 4 4 4 3 3 2 2 2 2 2 2 1
2 2 2 2 2 2 2 2 2 2 2 2 2 2 2 3 3 3 4 4 5 5 5 5 5 5 5 5 5 5 4 5 4 4 4 3 3 2 2 2 2 2 1
2 2 2 2 2 2 2 1 1 2 2 2 2 2 2 3 3 4 4 4 4 4 4 4 5 6 6 5 5 4 4 4 4 4 4 4 3 3 2 2 2 1 1
2 3 3 3 2 2 2 1 1 1 1 2 2 2 2 3 3 3 4 4 4 4 4 4 5 6 7 6 5 4 4 4 4 4 4 4 3 3 2 2 2 1 1
3 3 3 3 2 2 2 1 1 1 1 1 2 2 2 3 3 3 3 3 4 4 4 4 5 7 7 6 5 4 4 3 3 3 4 3 3 2 2 2 2 2 1
4 3 3 3 3 2 2 1 1 1 1 1 1 2 2 2 2 2 2 3 3 4 4 4 5 6 6 5 4 3 3 2 3 3 3 3 3 2 2 2 2 2 2
4 4 4 4 4 3 2 2 2 1 1 1 1 1 2 2 2 2 2 2 3 3 3 3 4 5 6 4 3 2 2 2 2 2 2 2 2 2 2 2 3 2 2
4 5 5 5 5 4 3 3 2 2 1 1 1 1 2 2 2 2 2 1 2 2 2 3 3 4 5 4 2 2 1 1 1 1 1 2 2 2 2 2 2 2 2
5 5 6 6 6 5 4 3 3 2 2 2 2 2 2 2 2 1 1 1 2 2 2 2 3 3 3 3 2 1 1 1 1 1 1 1 2 2 1 1 2 2 2
6 6 6 6 6 5 4 3 3 3 2 2 2 2 2 2 2 1 1 1 1 2 2 2 3 3 3 3 2 1 1 1 0 0 1 1 1 1 1 1 1 1 1
6 6 6 6 5 5 4 4 3 3 3 3 3 2 2 2 2 2 1 1 1 2 2 2 2 2 3 3 2 2 1 1 0 0 0 0 0 0 0 0 1 1 1
6 5 5 5 5 4 4 4 3 3 3 3 4 3 2 2 2 2 2 1 1 2 2 2 2 2 3 2 2 1 1 0 0 0 0 0 0 0 0 0 0 0 0
4 4 4 4 4 4 4 3 3 3 3 3 4 3 3 2 2 2 2 2 1 2 2 2 2 2 2 2 2 1 1 0 0 0 0 0 0 0 0 0 0 0 0
2 3 3 3 3 3 3 3 2 2 3 3 3 3 3 3 2 2 2 2 1 1 1 1 1 1 2 2 2 1 1 0 0 0 0 0 0 0 0 0 0 0 0
1 1 2 2 3 3 2 2 2 2 2 2 2 2 2 2 2 2 2 2 1 1 1 1 1 1 1 1 1 1 1 0 0 0 0 0 0 0 0 0 0 0 0
1 1 1 2 2 2 2 2 2 2 2 2 2 2 2 2 2 2 2 1 1 1 1 1 1 1 1 1 1 1 1 0 0 0 0 0 0 0 0 0 0 0 0
1 1 1 1 1 1 1 1 1 1 1 1 1 1 1 1 1 1 1 1 1 1 1 1 1 1 1 1 1 1 1 1 0 0 0 0 0 0 0 0 0 0 0
1 1 1 1 1 1 1 1 1 1 1 1 1 1 1 1 1 1 1 1 1 1 1 1 1 1 1 1 1 1 1 1 0 0 0 0 0 0 0 0 0 0 0
1 1 1 1 1 1 0 0 0 1 1 1 1 1 1 1 1 1 1 0 0 1 1 1 1 1 1 1 1 1 1 0 0 0 0 0 0 0 0 0 0 0 0
1 1 1 1 1 0 0 0 0 0 1 1 1 1 1 1 1 1 1 0 0 0 0 0 0 1 1 1 0 0 0 0 0 0 0 0 0 0 0 0 0 0 0
1 0 0 1 1 0 0 0 0 0 0 1 1 1 1 1 1 1 1 0 0 0 0 0 0 0 0 0 0 0 0 0 0 0 0 0 0 0 0 0 0 0 0
1 0 0 0 0 0 0 0 0 0 0 1 1 0 0 0 0 0 0 0 0 0 0 0 0 0 0 0 0 0 0 0 0 0 0 0 0 0 0 0 0 0 0
Wind_Speed
3 3 2 2 3 3 3 4 4 5 5 6 6 6 6 7 6 4 3 13 15 16 16 15 15 16 16 16 16 16 17 17 17 17 18 19 19 19 18 18 17 16 16
2 2 3 3 3 3 3 3 5 4 4 4 5 6 6 7 6 5 4 8 15 16 16 16 16 16 17 17 17 16 17 17 17 17 18 19 20 20 20 19 19 18 17
1 2 3 4 4 3 4 4 5 4 5 5 6 7 6 6 7 6 6 4 6 13 16 17 17 17 17 18 18 17 17 17 17 17 18 19 20 20 20 20 20 19 18
2 2 3 4 3 3 4 4 5 5 5 5 5 6 6 6 8 8 7 6 5 6 11 18 18 18 18 18 19 18 17 17 17 17 18 19 20 20 20 20 20 19 18
2 2 2 3 3 3 3 5 3 3 4 5 5 6 7 7 7 9 8 8 8 7 7 11 17 18 18 19 19 19 17 17 17 17 18 18 19 20 20 20 20 20 19
2 2 3 3 3 3 3 3 4 4 4 5 7 7 6 7 7 8 9 8 8 9 9 9 8 12 18 18 18 18 18 17 17 17 17 18 19 19 20 20 20 20 20
2 2 3 3 3 3 3 4 4 5 5 4 4 5 6 8 8 7 8 7 8 8 8 8 7 6 7 15 17 17 17 17 16 15 15 16 17 18 19 20 20 20 20
1 3 2 3 3 3 5 4 3 4 4 4 3 4 4 4 5 8 6 7 8 7 7 10 8 7 5 4 7 15 16 16 15 14 14 14 15 16 17 19 19 19 19
1 2 2 3 3 4 4 4 4 5 4 4 3 3 3 3 4 3 5 5 5 5 5 5 6 6 7 5 5 8 12 11 11 12 12 12 13 14 15 17 19 19 19
3 3 3 3 3 3 4 5 3 4 5 5 4 4 5 5 4 4 4 4 4 5 6 6 5 4 6 5 5 6 7 7 9 10 11 11 11 12 13 15 18 19 19
4 5 5 3 3 4 4 4 4 5 4 6 5 4 5 5 6 6 6 5 3 3 4 4 4 3 3 3 3 4 5 6 6 7 8 8 8 9 11 12 15 17 19
4 5 4 3 3 4 4 4 5 6 5 6 5 5 5 5 5 5 6 6 5 4 4 2 2 2 1 2 4 5 5 5 4 3 4 4 4 5 6 8 11 13 15
4 2 1 1 3 4 4 5 5 6 6 6 6 6 5 6 5 5 6 6 6 4 3 3 2 1 2 3 4 7 6 6 5 4 4 4 4 3 2 3 5 7 10
5 4 3 3 4 5 6 5 5 6 6 6 8 7 6 6 6 6 6 5 5 4 3 3 1 1 2 4 6 8 6 8 8 6 6 7 7 6 6 5 4 2 2
7 7 6 6 5 6 6 6 6 6 6 7 7 7 6 6 5 6 5 5 5 5 4 3 1 2 3 4 7 6 7 9 10 9 8 9 9 9 9 8 8 7 6
7 8 8 7 7 7 7 6 6 7 7 6 6 6 6 6 5 5 5 5 6 5 4 2 2 3 4 6 7 7 9 12 11 11 11 11 11 11 11 11 10 10 9
7 8 8 8 8 8 8 7 7 7 8 7 7 7 6 6 5 5 5 4 5 5 4 2 1 3 5 7 8 7 7 7 7 12 13 13 13 13 13 13 13 13 13
8 9 9 9 9 9 8 8 8 8 7 8 7 6 6 5 5 4 4 4 4 4 5 5 3 3 5 8 8 8 7 8 7 11 13 14 14 14 14 14 14 14 14
9 9 9 9 9 9 9 8 8 8 8 7 6 5 5 5 4 3 4 3 3 4 5 6 5 4 4 6 8 8 9 7 9 10 12 13 14 15 14 14 14 14 13
9 8 8 9 9 10 10 9 8 8 7 6 5 5 4 4 4 4 3 3 3 4 5 6 6 5 5 5 6 7 7 6 7 8 9 10 13 14 14 14 14 13 12
11 9 8 8 8 10 10 8 6 8 7 6 5 4 2 1 1 2 2 3 4 4 5 6 7 6 5 5 5 5 7 6 6 6 7 6 6 6 7 10 12 12 11
9 8 8 9 9 11 10 8 6 6 6 6 5 3 3 3 3 3 4 4 5 6 7 6 6 7 6 5 5 6 7 6 4 4 5 6 5 5 5 5 8 10 10
9 9 8 9 9 9 11 10 9 6 7 6 5 5 5 5 5 5 7 8 7 7 7 6 8 7 6 5 6 6 5 5 4 5 5 6 6 6 5 6 9 9 9
8 8 8 10 9 10 9 10 9 7 7 7 7 6 5 6 6 7 8 8 7 6 6 6 7 7 7 5 5 6 7 6 5 4 5 5 6 6 6 4 7 8 8
8 9 9 9 9 8 8 9 8 6 6 7 7 7 7 7 9 10 9 10 10 8 11 13 13 12 12 10 6 5 5 5 5 3 2 4 5 6 4 4 5 7 7
9 10 10 9 9 8 7 9 8 5 6 5 6 7 10 10 12 10 10 11 11 9 10 11 10 10 8 8 7 4 3 5 6 3 1 3 5 5 4 3 4 5 4
Wind_Direction
236 252 266 283 279 267 231 230 250 243 243 254 256 253 244 242 248 239 196 188 191 198 203 208 215 219 221 222 221 220 220 220 217 215 215 216 218 218 218 217 217 215 214
261 306 293 282 274 273 284 280 276 271 259 259 265 268 265 263 260 255 242 209 205 205 208 212 217 220 222 223 222 220 219 220 218 215 215 217 217 217 218 218 217 216 214
263 263 272 272 268 279 283 275 274 275 268 263 260 261 262 256 255 251 249 246 220 214 214 216 219 221 222 223 223 221 220 219 218 216 216 216 217 216 217 217 217 216 214
290 273 268 268 275 270 262 258 252 257 260 261 260 260 257 253 252 251 248 240 236 234 222 221 221 223 224 225 226 223 220 219 218 218 217 216 217 216 216 216 216 216 214
324 304 283 280 274 265 263 271 271 255 261 260 257 252 248 247 246 249 246 242 234 229 230 224 219 221 224 226 227 225 221 220 219 218 218 217 218 217 216 216 216 215 214
339 342 295 309 312 293 283 282 290 279 264 258 265 267 259 250 240 237 240 242 237 232 231 235 219 221 223 225 226 225 224 222 220 220 220 219 218 216 215 215 215 215 214
356 327 307 328 310 302 311 303 299 296 285 271 269 272 260 250 243 233 230 234 239 238 233 229 223 219 216 221 226 226 224 224 220 219 219 219 219 217 214 214 214 215 214
341 303 357 330 327 325 298 290 298 292 291 293 283 290 282 263 244 246 232 229 234 234 235 235 225 220 217 201 220 226 225 225 222 219 218 217 217 218 216 215 214 214 214
258 281 303 299 313 305 307 328 307 299 298 296 272 261 279 285 320 282 262 245 236 233 235 241 231 219 216 205 208 221 223 224 227 227 223 220 219 218 218 217 216 214 214
235 238 248 263 285 294 298 298 331 325 304 294 285 260 253 272 284 296 291 275 260 248 241 245 244 221 214 207 197 193 199 210 224 231 228 223 220 220 219 220 219 216 215
235 224 222 224 249 267 280 296 300 291 289 287 293 294 286 274 250 257 279 281 275 266 252 239 239 235 210 186 173 170 180 188 207 223 226 223 223 221 221 222 223 222 219
248 228 220 206 233 258 279 286 282 279 275 281 283 280 279 276 270 258 264 274 271 262 261 258 243 228 201 146 143 144 151 150 159 188 195 195 199 207 215 221 225 226 224
284 276 279 244 255 263 267 267 269 271 272 273 271 269 267 267 271 268 265 270 272 267 252 253 235 196 172 121 122 126 115 123 126 134 125 115 110 110 130 189 219 225 225
311 317 309 268 258 261 269 269 272 272 271 271 275 274 271 267 262 259 258 263 270 263 246 237 228 169 136 121 128 125 112 110 108 108 107 102 96 90 88 86 87 107 193
308 315 311 296 279 266 264 268 268 268 272 270 272 275 272 267 262 257 250 240 238 248 246 217 196 158 134 116 136 123 115 107 105 103 101 98 94 89 85 83 81 79 82
309 306 299 294 286 276 265 261 267 267 269 271 268 268 272 270 265 259 252 243 231 230 236 195 173 151 139 131 123 111 108 104 98 101 98 94 92 89 85 81 80 79 77
304 296 290 283 280 277 271 262 261 266 268 271 274 274 272 272 267 265 261 248 234 217 214 190 158 148 136 125 119 119 121 106 100 98 98 94 91 88 85 82 80 79 77
300 297 291 283 277 276 272 268 265 266 267 270 273 274 278 278 270 265 259 250 235 208 184 170 154 142 133 131 132 129 122 112 106 101 99 97 93 89 85 82 79 77 76
285 289 292 287 282 278 276 270 265 264 263 265 270 275 276 278 273 265 256 244 223 194 170 157 151 137 128 136 133 126 117 115 111 111 101 96 95 92 88 84 81 78 77
279 280 284 289 288 282 275 269 266 264 262 260 262 268 270 273 265 254 240 222 185 161 154 149 143 136 130 133 130 129 126 125 125 123 106 104 100 93 91 89 88 85 82
276 278 282 287 290 284 274 270 267 264 262 254 247 246 246 261 269 244 210 180 161 149 147 143 140 136 136 141 141 140 133 126 123 127 125 124 118 105 97 92 90 91 90
272 275 282 287 289 290 292 278 262 265 259 246 230 205 186 163 126 121 121 126 136 146 147 143 142 144 145 144 139 141 137 136 132 143 137 137 129 112 105 95 101 100 97
277 276 280 282 283 285 280 265 253 257 250 235 219 204 193 164 166 141 120 109 102 111 129 137 135 134 132 135 131 133 136 135 125 145 128 119 118 108 102 109 120 112 107
280 280 277 278 278 281 272 259 252 250 246 231 214 197 174 165 165 148 133 115 100 93 110 111 113 111 109 109 111 121 120 110 101 105 118 123 128 121 117 121 135 127 120
279 275 272 269 273 275 261 251 244 246 239 226 203 179 164 161 157 152 133 121 110 98 88 96 101 104 101 96 101 120 130 128 121 108 97 116 130 127 128 132 147 146 135
277 275 271 268 270 270 254 239 229 241 237 217 190 168 161 151 153 153 140 131 124 122 117 108 100 101 103 97 88 92 123 139 133 120 104 107 140 139 130 141 148 158 151